TimePDT,TemperatureF,Dew PointF,Humidity,Sea Level PressureIn,VisibilityMPH,Wind Direction,Wind SpeedMPH,Gust SpeedMPH,PrecipitationIn,Events,Conditions,WindDirDegrees,DateUTC
1:55 AM,36.0,21.9,57,29.87,10.0,North,5.8,-,N/A,,Mostly Cloudy,350,2013-03-21 08:55:00
2:55 AM,36.0,23.0,59,29.90,10.0,North,5.8,-,N/A,,Overcast,350,2013-03-21 09:55:00
3:55 AM,35.1,24.1,64,29.93,10.0,Calm,Calm,-,N/A,,Overcast,0,2013-03-21 10:55:00
4:55 AM,36.0,21.9,57,29.95,10.0,Calm,Calm,-,N/A,,Overcast,0,2013-03-21 11:55:00
5:55 AM,34.0,21.9,61,29.96,10.0,Calm,Calm,-,N/A,,Mostly Cloudy,0,2013-03-21 12:55:00
6:55 AM,30.9,21.0,67,29.99,10.0,East,5.8,-,N/A,,Clear,100,2013-03-21 13:55:00
7:55 AM,35.1,23.0,61,30.01,10.0,NE,4.6,-,N/A,,Mostly Cloudy,50,2013-03-21 14:55:00
8:55 AM,37.9,23.0,55,30.02,10.0,SSE,4.6,-,N/A,,Mostly Cloudy,150,2013-03-21 15:55:00
9:55 AM,41.0,19.0,41,30.02,10.0,Calm,Calm,-,N/A,,Mostly Cloudy,0,2013-03-21 16:55:00
10:55 AM,44.1,19.9,38,30.04,10.0,ENE,3.5,-,N/A,,Scattered Clouds,60,2013-03-21 17:55:00
11:55 AM,44.1,19.0,37,30.04,10.0,Variable,4.6,-,N/A,,Mostly Cloudy,0,2013-03-21 18:55:00
12:55 PM,45.0,19.0,36,30.04,10.0,West,6.9,-,N/A,,Mostly Cloudy,260,2013-03-21 19:55:00
1:55 PM,43.0,21.0,42,30.04,10.0,WSW,10.4,20.7,N/A,,Scattered Clouds,240,2013-03-21 20:55:00
2:55 PM,44.1,19.9,38,30.03,10.0,WNW,3.5,-,N/A,,Overcast,300,2013-03-21 21:55:00
3:55 PM,46.0,18.0,33,30.01,10.0,NNW,6.9,-,N/A,,Mostly Cloudy,330,2013-03-21 22:55:00
4:55 PM,41.0,21.9,47,30.04,6.0,NNW,12.7,23.0,0.00,Rain,Light Rain,340,2013-03-21 23:55:00
5:55 PM,39.0,28.0,65,30.07,10.0,NW,13.8,-,N/A,,Overcast,310,2013-03-22 00:55:00
6:55 PM,39.0,25.0,57,30.06,10.0,NW,11.5,-,N/A,,Mostly Cloudy,320,2013-03-22 01:55:00
7:55 PM,39.0,24.1,55,30.05,10.0,WNW,15.0,-,N/A,,Clear,300,2013-03-22 02:55:00
8:55 PM,37.0,23.0,57,30.07,10.0,North,4.6,-,N/A,,Clear,360,2013-03-22 03:55:00
9:55 PM,37.9,21.0,51,30.08,10.0,NW,12.7,-,N/A,,Clear,320,2013-03-22 04:55:00
10:55 PM,36.0,21.9,57,30.09,10.0,NW,8.1,-,N/A,,Clear,320,2013-03-22 05:55:00
11:55 PM,35.1,21.9,59,30.08,10.0,NW,15.0,-,N/A,,Clear,310,2013-03-22 06:55:00